FW1524 Weather Reports


time (UTC)temp
C
wind
direction
speed
KPH
gust
KPH
rain 1hr
cm
rain 24hr
cm
rain mn
cm
humidity
%
barometer
mb
20260509141559 10 138 0.0 0.0 0.10 0.71 0.71 1 1008.9
20260509134556 10 131 0.0 0.0 0.13 0.69 0.69 1 1009.0
20260509133050 10 131 0.0 0.0 0.15 0.66 0.66 1 1009.1
20260509131547 10 131 0.0 0.0 0.15 0.64 0.64 1 1009.0
20260509124543 10 130 0.0 0.0 0.18 0.58 0.58 1 1009.4
20260509123046 9 130 0.0 0.0 0.15 0.53 0.53 1 1009.2
20260509121535 9 131 0.0 0.0 0.13 0.48 0.48 1 1009.4
20260509114525 9 132 0.0 0.0 0.15 0.41 0.41 1 1009.5
20260509113021 8 132 0.0 0.0 0.20 0.38 0.38 1 1009.3
20260509111517 8 67 0.0 0.0 0.23 0.36 0.36 1 1009.3
20260509104600 8 67 0.0 0.0 0.18 0.28 0.28 1 1009.6
20260509103102 7 67 0.0 0.0 0.10 0.20 0.20 1 1009.7
20260509101552 7 67 0.0 0.0 0.03 0.13 0.13 1 1009.4
20260509100152 7 67 0.0 0.0 0.03 0.13 0.13 1 1009.4
20260509094542 7 67 0.0 0.0 0.00 0.10 0.10 1 1009.0
20260509093042 7 67 0.0 0.0 0.00 0.10 0.10 1 1009.4
20260509091533 7 67 0.0 0.0 0.00 0.10 0.10 1 1009.2
20260509090130 7 67 0.0 0.0 0.03 0.10 0.10 1 1009.5
20260509084531 7 67 0.0 0.0 0.03 0.10 0.10 1 1009.6
20260509083022 7 67 0.0 0.0 0.03 0.10 0.10 1 1009.4
20260509081518 7 67 0.0 0.0 0.03 0.10 0.10 1 1010.0
20260509080114 7 67 0.0 0.0 0.03 0.08 0.08 1 1010.2
20260509074519 7 67 0.0 0.0 0.03 0.08 0.08 1 1010.0
20260509073014 7 67 0.0 0.0 0.05 0.08 0.08 1 1009.9
20260509071511 7 67 0.0 0.0 0.08 0.08 0.08 1 1009.8
20260509070108 7 67 0.0 0.0 0.05 0.05 0.05 1 1009.8
20260509064601 7 67 0.0 0.0 0.05 0.05 0.05 1 1009.9
20260509063054 7 67 0.0 0.0 0.05 0.05 0.05 1 1010.3
20260509061557 7 67 0.0 0.0 0.03 0.03 0.03 1 1010.4
20260509060046 7 67 0.0 0.0 0.00 0.00 0.00 1 1010.6
20260509054605 7 67 0.0 0.0 0.00 0.00 0.00 1 1010.6
20260509053050 7 67 0.0 0.0 0.00 0.00 0.00 1 1010.4
20260509051542 7 67 0.0 0.0 0.00 0.00 0.00 1 1010.6
20260509050046 7 67 0.0 0.0 0.00 0.00 0.00 1 1010.4
20260509044527 7 67 0.0 0.0 0.00 0.00 0.00 1 1010.7
20260509043023 7 67 0.0 0.0 0.00 0.00 0.00 1 1010.9
20260509041518 7 67 0.0 0.0 0.00 0.00 0.00 1 1010.9
20260509040014 7 67 0.0 0.0 0.00 0.00 0.00 1 1010.9
20260509034515 7 67 0.0 0.0 0.00 0.00 0.00 1 1010.7
20260509033009 7 67 0.0 0.0 0.00 0.00 0.00 1 1010.8
20260509031510 7 67 0.0 0.0 0.00 0.00 0.00 1 1010.8
20260509030001 7 67 0.0 0.0 0.00 0.00 0.00 12 1010.9
20260509024517 7 67 0.0 0.0 0.00 0.00 0.00 15 1011.0
20260509023014 7 67 0.0 0.0 0.00 0.00 0.00 15 1010.6
20260509021504 8 67 0.0 0.0 0.00 0.00 0.00 22 1010.9
20260509020059 8 67 0.0 0.0 0.00 0.00 0.00 28 1010.9
20260509014542 9 67 0.0 0.0 0.00 0.00 0.00 30 1010.6
20260509013041 9 67 0.0 0.0 0.00 0.00 0.00 37 1010.7
20260509011533 10 67 0.0 0.0 0.00 0.00 0.00 43 1010.6
20260509010029 10 67 0.0 0.0 0.00 0.00 0.00 41 1010.3
20260509004541 10 64 0.0 0.0 0.00 0.00 0.00 46 1010.0
20260509003028 10 64 0.0 0.0 0.00 0.00 0.00 46 1009.9
20260509001524 11 63 0.0 0.0 0.00 0.00 0.00 51 1009.8
20260509000019 11 63 0.0 0.0 0.00 0.00 0.00 53 1009.6
20260508234515 11 63 0.0 0.0 0.00 0.00 0.00 53 1009.4
20260508233012 12 63 0.0 0.0 0.00 0.00 0.00 57 1009.2
20260508231507 12 63 0.0 0.0 0.00 0.00 0.00 58 1009.2
20260508230003 12 63 0.0 0.0 0.00 0.00 0.00 54 1009.2
20260508224502 12 63 0.0 0.0 0.00 0.00 0.00 55 1009.2
20260508223058 12 63 0.0 0.0 0.00 0.00 0.00 55 1009.1
20260508221558 12 46 0.0 0.0 0.00 0.00 0.00 55 1009.2
20260508220050 12 39 0.0 0.0 0.00 0.00 0.00 54 1009.3
20260508214607 13 25 0.0 0.0 0.00 0.00 0.00 53 1009.2
20260508213058 13 227 0.0 0.0 0.00 0.00 0.00 52 1009.3
20260508211542 13 247 0.0 0.0 0.00 0.00 0.00 52 1009.3
20260508210040 13 11 0.0 0.0 0.00 0.00 0.00 53 1009.4
20260508204506 13 27 0.0 0.0 0.00 0.00 0.00 52 1009.7
20260508203003 14 28 0.0 1.6 0.00 0.00 0.00 51 1009.7
20260508201611 13 29 0.0 1.6 0.00 0.00 0.00 53 1009.7
20260508200121 13 32 0.0 1.6 0.00 0.00 0.00 53 1010.1
20260508194530 13 241 0.0 1.6 0.00 0.00 0.00 54 1010.1
20260508193024 13 210 0.0 4.8 0.00 0.00 0.00 54 1010.3
20260508191525 12 213 0.0 0.0 0.00 0.00 0.00 56 1010.6
20260508190016 13 213 0.0 14.5 0.00 0.00 0.00 56 1010.8
20260508184552 12 225 0.0 3.2 0.00 0.00 0.00 57 1011.0
20260508183046 12 355 0.0 1.6 0.00 0.00 0.00 56 1011.2
20260508181605 11 193 0.0 1.6 0.00 0.00 0.00 49 1011.2
20260508180035 11 223 0.0 0.0 0.00 0.00 0.00 34 1011.4
20260508174542 10 196 0.0 0.0 0.00 0.00 0.00 18 1011.6
20260508173040 10 20 0.0 3.2 0.00 0.00 0.00 1 1011.8
20260508171532 8 206 0.0 0.0 0.00 0.00 0.00 1 1011.5
20260508170028 7 69 0.0 0.0 0.00 0.00 0.00 1 1011.8
20260508164537 7 44 0.0 1.6 0.00 0.00 0.00 1 1012.0
20260508163024 7 47 0.0 0.0 0.00 0.00 0.00 1 1011.8
20260508161520 7 35 0.0 0.0 0.00 0.00 0.00 1 1012.1
20260508160031 7 74 0.0 1.6 0.00 0.00 0.00 1 1012.1
20260508154511 7 11 0.0 3.2 0.00 0.00 0.00 1 1011.8
20260508153005 7 31 0.0 0.0 0.00 0.00 0.00 1 1011.4
20260508151501 7 36 0.0 0.0 0.00 0.00 0.00 1 1011.3
20260508150058 7 38 0.0 0.0 0.00 0.00 0.00 1 1011.4
20260508144505 7 355 0.0 0.0 0.00 0.00 0.00 1 1011.7
20260508143100 7 355 0.0 0.0 0.00 0.00 0.00 1 1011.5